Home > Time Zones > World Clock > Weather > Norway > Tau > Past weeks

Flag for Norway Weather past 2 weeks in Tau, Norway

Now
52 °F

Partly cloudy.


Feels Like: 49 °F
Forecast: 45 / 47 °F
Wind: 7 mph from South

Location: Stavanger / Sola

Current Time: Oct 24, 2014 at 8:29:10 PM

Latest Report: Oct 24, 2014 at 7:50 PM


Visibility: N/A

Pressure: 29.77 "Hg

Humidity: 88%

Dew point: 48 °F

Location of TauLocation

Historic Weather in Tau — Graph

°F

Tau temperature yesterday

Maximum temperature yesterday: 54 °F (at 11:20 AM)
Minimum temperature yesterday: 46 °F (at 12:20 AM)
Average temperature yesterday: 52 °F

Past Weeks' High & Low Weather Summary

 TemperatureHumidityPressure
High59 °F (Oct 18, 2:50 PM)100% (Oct 12, 6:20 AM)29.98 "Hg (Oct 12, 6:20 AM)
Low34 °F (Oct 17, 4:50 AM)47% (Oct 16, 1:20 PM)29.15 "Hg (Oct 21, 4:20 PM)
Average51 °F85%29.72 "Hg
* Reported Oct 9 7:20 PM — Oct 24 7:20 PM, Tau, Weather by CustomWeather, © 2014

Note: Actual official high and low records may vary slightly from our data, if they occured in-between our weather recording intervals... More about our weather records

Advertising

Tau weather history for previous 24 hours

 ConditionsComfort  
Time TempWeatherWind HumidityBarometerVisibility
7:20 PM
Oct 24
52 °FPartly cloudy.7 mph88%29.77 "HgN/A
6:50 PM52 °FBroken clouds.7 mph94%29.77 "HgN/A
6:20 PM52 °FBroken clouds.7 mph94%29.77 "HgN/A
5:50 PM54 °FBroken clouds.10 mph88%29.77 "HgN/A
5:20 PM54 °FBroken clouds.12 mph94%29.77 "HgN/A
4:50 PM54 °FBroken clouds.12 mph94%29.77 "HgN/A
4:20 PM54 °FBroken clouds.13 mph94%29.77 "HgN/A
3:50 PM54 °FBroken clouds.12 mph94%29.77 "HgN/A
3:20 PM54 °FDrizzle. Broken clouds.12 mph94%29.77 "HgN/A
2:50 PM54 °FDrizzle. Broken clouds.10 mph94%29.77 "Hg6 mi
2:20 PM54 °FDrizzle. Broken clouds.14 mph94%29.77 "Hg6 mi
1:50 PM55 °FBroken clouds.9 mph94%29.77 "HgN/A
1:20 PM54 °FBroken clouds.12 mph94%29.77 "HgN/A
12:50 PM55 °FLight rain. Broken clouds.8 mph94%29.77 "Hg5 mi
12:20 PM55 °FBroken clouds.9 mph94%29.77 "HgN/A
11:50 AM55 °FBroken clouds.10 mph94%29.77 "HgN/A
11:20 AM55 °FBroken clouds.12 mph94%29.77 "HgN/A
10:50 AM55 °FBroken clouds.12 mph94%29.77 "HgN/A
10:20 AM55 °FBroken clouds.12 mph94%29.74 "Hg6 mi
9:50 AM55 °FBroken clouds.13 mph94%29.74 "Hg6 mi
9:20 AM55 °FPassing clouds.13 mph94%29.74 "Hg4 mi
8:50 AM55 °FPassing clouds.13 mph94%29.74 "Hg4 mi
8:20 AM55 °FDrizzle. Fog.14 mph94%29.74 "Hg2 mi
7:50 AM55 °FDrizzle. Fog.16 mph94%29.71 "Hg2 mi
7:20 AM55 °FPartly cloudy.14 mph94%29.71 "Hg4 mi
6:50 AM55 °FPassing clouds.14 mph94%29.71 "Hg4 mi
6:20 AM55 °FPartly cloudy.15 mph94%29.71 "Hg5 mi
5:50 AM55 °FPassing clouds.17 mph94%29.71 "Hg5 mi
4:50 AM55 °FPassing clouds.16 mph94%29.74 "Hg2 mi
3:50 AM55 °FPassing clouds.17 mph94%29.74 "Hg3 mi
2:50 AM55 °FPartly cloudy.17 mph88%29.74 "HgN/A
1:50 AM54 °FPartly cloudy.15 mph94%29.77 "HgN/A
12:50 AM54 °FPartly cloudy.17 mph94%29.80 "Hg6 mi
12:20 AM54 °FPassing clouds.15 mph94%29.80 "Hg3 mi
11:50 PM
Oct 23
54 °FPartly cloudy.17 mph94%29.80 "Hg3 mi
11:20 PM54 °FDrizzle. Mostly cloudy.17 mph94%29.80 "Hg2 mi
10:50 PM54 °FPartly cloudy.16 mph94%29.80 "Hg2 mi
10:20 PM54 °FPartly cloudy.17 mph94%29.80 "Hg6 mi
9:50 PM54 °FLight rain. Passing clouds.17 mph94%29.80 "Hg4 mi
9:20 PM54 °FDrizzle. Fog.16 mph94%29.80 "Hg3 mi
8:50 PM54 °FLight rain. Fog.16 mph94%29.80 "Hg2 mi
8:20 PM54 °FLight rain. Fog.17 mph94%29.80 "Hg2 mi
Weather by CustomWeather, © 2014

See weather overviewHow to use our weather pages